MSSSMHTG

Guest
Details From MSSS - ILOPANGO INTL
To MHTG - Tegucigalpa Toncontin Intl
Flight Number -
Tags generated
Created
Modified
Stats Distance 113 nm / 209 km
Max Altitude 8,900 ft / 2,713 m
Waypoints 3
Social Downloads 0
Likes 0
Share VATSIM

Download

Looking for another format? Having issues loading an existing format? Contact us
Advertisement - Login to hide

Notes

Basic altitude profile: - Ascent Rate: 2500ft/min - Ascent Speed: 250kts - Cruise Altitude: 35000ft - Cruise Speed: 420kts - Descent Rate: 1500ft/min - Descent Speed: 250kts Options: - Use NATs: no - Use PACOTS: yes - Use low airways: no - Use high airways: yes

Route

MSSS PERLA MHTG

ID Type Via Altitude Latitude Longitude Leg Dist Tot Dist Heading (true) Name
O MSSS APT - 0 ft / 0 m 13.69880˚ -89.11985˚ - 0 nm - ILOPANGO INTL
PERLA FIX - 8,900 ft / 2,713 m 13.76556˚ -88.69528˚ 25 nm 25 nm 81° / 81° -
O MHTG APT - 0 ft / 0 m 14.06088˚ -87.21720˚ 87 nm 113 nm 78° / 79° Tegucigalpa Toncontin Intl

Altitude Profile

Advertisement - Login to hide

MSSS

Details ICAO MSSS
Name ILOPANGO INTL
Region El Salvador
Timezone America/El_Salvador (UTC-6.0)
Stats Elevation 2,020 ft / 616 m (AMSL)
Location 13.698802° -89.119849°
Runways 1
Magnetic Variation 0.450° E

METAR

MSSS 152250Z 24005KT CAVOK 27/17 Q1013 A2993

Decode

TAF

Not found

Departure Runways

ID Width Length Bearing (true) Bearing (mag) Surface Threshold Offset Overrun Length
15 148 ft / 45 m 7,350 ft / 2,240 m 153.66° 153.21° Asphalt 0 ft / 0 m 0 ft / 0 m
33 148 ft / 45 m 7,350 ft / 2,240 m 333.66° 333.21° Asphalt 0 ft / 0 m 0 ft / 0 m

MHTG

Details ICAO MHTG (TGU)
Name Tegucigalpa Toncontin Intl
Region Honduras
Timezone America/Tegucigalpa (UTC-6.0)
Stats Elevation 3,294 ft / 1,004 m (AMSL)
Location 14.060883° -87.217197°
Runways 1
Magnetic Variation 0.660° W

METAR

MHTG 152300Z 04003KT 9999 BKN030 24/15 Q1018 A3006 NOSIG

Decode

TAF

Not found

Destination Runways

ID Width Length Bearing (true) Bearing (mag) Surface Threshold Offset Overrun Length
02 148 ft / 45 m 6,140 ft / 1,872 m 18.87° 19.53° Asphalt 670 ft / 204 m 100 ft / 30 m
20 148 ft / 45 m 6,140 ft / 1,872 m 198.87° 199.53° Asphalt 0 ft / 0 m 200 ft / 61 m

Popular Alternatives